User: anonymous
Location: Nebula Knoll Observatory
(43.6666°N, 71.0000°W)
Time: 18:50:37
(UTC-04:00)
Language:

Cosmos 1782 - Orbit

View from above orbital plane
View from above orbital plane
View from above satellite
View from above satellite

Ground track
Ground track

The orbit data is extracted from the following two-line orbital elements,

1 16986U 86074A   14292.65437599  .00003127  00000-0  22768-3 0  8801
2 16986 082.5090 344.8797 0013094 062.8015 297.4543 15.03400126524677
Epoch (UTC): 19 October 2014 15:42:18
Eccentricity: 0.0013094
inclination: 82.5090°
perigee height: 547 km
apogee height: 565 km
right ascension of ascending node: 344.8797°
argument of perigee: 62.8015°
revolutions per day: 15.03400126
mean anomaly at epoch: 297.4543°
orbit number at epoch: 52467

The dashed part of the orbit path shows where the satellite is in the earth's shadow,  

DLR